Location: Dover
(48.8500°N, 53.9833°W)
Time: 06:24:00
(UTC+00:00)

SPOT 1/Viking Rocket - Pass Details

Date: 14 November 2025
Orbit: 773 x 789 km, 98.2° (Epoch: 12 December)

Event Time Altitude Azimuth Distance (km) Brightness Sun altitude
Rises 22:09:19 0° 177° (S) 3,252 6.8 -21.8°
Reaches altitude 10° 22:11:40 10° 182° (S) 2,331 6.0 -22.1°
Maximum altitude 22:16:43 55° 260° (W) 942 4.2 -23.0°
Drops below altitude 10° 22:21:50 10° 338° (NNW) 2,358 6.3 -23.8°
Sets 22:24:13 0° 343° (NNW) 3,293 7.0 -24.2°
